Погода в Огородникове

Россия / Рязанская область     54°20′42″N   40°11′12″E
темп.,
°C
ветер,
м/с
пор.,
м/с
влажн.,
%
обл.,
%
осадки,
мм/ч
давл.,
гПа
погр.,
м
22 апреля, чт
чт2200:00+5ю3891100 0.0 1014273
03:00+5юз3694100 0.1 1015320
06:00+5ююз268885 0.0 1017245
09:00+8ююз56735 0.0 1018735
12:00+12юз685972 0.1 10181553
15:00+13ююз6856100 0.1 10181677
18:00+12ююз596441 0.1 1018493
21:00+8ю4108238 0.1 1019185
23 апреля, пт
пт2300:00+7ю411835 0.0 1019205
03:00+6ю410865 0.0 1019174
06:00+7ю4118496 0.0 1019216
09:00+13ю6106479 0.0 1019586
12:00+16ю7942100 0.0 10182630
15:00+16ю694431 0.0 10162152
18:00+14ююв510605 0.1 1015516
21:00+10юв613765 0.1 1014314
24 апреля, сб
сб2400:00+9ююв614875 0.0 1012328
03:00+8ююв61488100 0.1 1010367
06:00+8ююв61390100 0.1 1008466
09:00+4з5796100 1.3 1010600
12:00+6зсз4784100 1.9 1010759
15:00+9з565995 2.4 10091390
18:00+8зсз3664100 0.7 1009601
21:00+5зюз1171100 0.8 101010
25 апреля, вс
вс2500:00+4зсз368089 0.1 1010108
03:00+2сз33825 0.1 101153
06:00+2з388478 0.0 1012222
09:00+6з57625 0.0 10131114
12:00+8зюз6849100 0.3 10132100
15:00+9зюз9114295 0.9 10132405
18:00+7зюз695065 0.1 10131270
21:00+3зюз36682 0.1 1015103
26 апреля, пн
пн2600:00+2юз347651 0.0 101663
03:00+1ююз488820 0.0 1016187
06:00+1юз36915 0.0 1016175
09:00+6юз35605 0.0 1016953
12:00+9юз464795 0.1 10142133
15:00+9ю445198 0.1 10131545
18:00+5з3488100 1.0 1012668
21:00+4юз2592100 1.4 1011445